Back to catalog

CZ-3C DEB

LostGTO
NORAD 40822·DEBRIS·🇨🇳 China

Launched Oct 31, 2010 from Xichang Satellite Launch Center

Loading…

TLE

StaleSource: Space-Track

Epoch: Apr 6, 2023, 11:07 UTC

1 40822U 10057AP  23096.46382065 -.00000032  00000-0 -48628-3 0  9991
2 40822  20.7113 109.8142 7202624 196.1970 115.3596  2.22396553 16490

Track CZ-3C DEB in real time with AllMySat

Download on the App Store